QPF
0.03 0.02 0.03 0.11 0.30 0.12 0.09 0.06 0.02 0.01 0.01 0.02 0.03 0.06 0.09 0.15 0.12 0.02 0.02 0.01 0.00 0.00 0.00 0.00 0.00 0.00 0.00 0.00 0.00 0.00 0.00 0.00 0.00 0.00 0.00 0.00 0.00 0.00 0.00 0.00 0.00 0.00
0.02 0.05 0.07 0.09 0.13 0.09 0.07 0.07 0.04 0.02 0.01 0.02 0.11 0.04 0.11 0.08 0.10 0.06 0.03 0.01 0.01 0.01 0.00 0.00 0.00 0.00 0.00 0.00 0.00 0.00 0.00 0.00 0.00 0.00 0.00 0.00 0.00 0.00 0.00 0.00 0.00 0.00
0.02 0.06 0.07 0.09 0.12 0.13 0.09 0.08 0.05 0.04 0.04 0.08 0.07 0.14 0.13 0.07 0.06 0.06 0.02 0.01 0.00 0.00 0.00 0.00 0.00 0.00 0.00 0.00 0.00 0.00 0.00 0.00 0.00 0.00 0.00 0.00 0.00 0.00 0.00 0.00 0.00 0.00
0.03 0.02 0.06 0.18 0.18 0.16 0.12 0.09 0.06 0.10 0.09 0.16 0.12 0.19 0.10 0.06 0.06 0.08 0.00 0.00 0.00 0.00 0.00 0.00 0.00 0.00 0.00 0.00 0.00 0.00 0.00 0.00 0.00 0.00 0.00 0.00 0.00 0.00 0.00 0.00 0.00 0.00
0.02 0.03 0.04 0.12 0.23 0.19 0.15 0.08 0.12 0.16 0.07 0.15 0.11 0.10 0.09 0.15 0.24 0.01 0.00 0.00 0.00 0.00 0.00 0.00 0.00 0.00 0.00 0.00 0.00 0.00 0.00 0.00 0.00 0.00 0.00 0.00 0.00 0.00 0.00 0.00 0.00 0.00
0.02 0.01 0.03 0.11 0.19 0.15 0.10 0.15 0.11 0.09 0.05 0.14 0.19 0.05 0.04 0.03 0.02 0.01 0.00 0.00 0.00 0.00 0.00 0.00 0.00 0.00 0.00 0.00 0.00 0.00 0.00 0.00 0.00 0.00 0.00 0.00 0.00 0.00 0.00 0.00 0.00 0.00
0.04 0.01 0.03 0.08 0.07 0.12 0.08 0.22 0.22 0.11 0.15 0.17 0.11 0.05 0.03 0.01 0.00 0.00 0.00 0.00 0.00 0.00 0.00 0.00 0.00 0.00 0.00 0.00 0.00 0.00 0.00 0.00 0.00 0.00 0.00 0.00 0.00 0.00 0.00 0.00 0.00 0.00
0.21 0.12 0.03 0.04 0.05 0.03 0.05 0.40 0.12 0.16 0.15 0.23 0.17 0.18 0.02 0.01 0.00 0.00 0.00 0.00 0.00 0.00 0.00 0.00 0.00 0.00 0.00 0.00 0.00 0.00 0.00 0.00 0.00 0.00 0.00 0.00 0.00 0.00 0.00 0.00 0.00 0.00
0.01 0.03 0.03 0.03 0.02 0.04 0.19 0.47 0.26 0.27 0.31 0.24 0.14 0.15 0.03 0.01 0.00 0.00 0.00 0.00 0.00 0.00 0.00 0.00 0.00 0.00 0.00 0.00 0.00 0.00 0.00 0.00 0.00 0.00 0.00 0.00 0.00 0.00 0.00 0.00 0.00 0.00
0.00 0.02 0.02 0.02 0.03 0.09 0.46 0.35 0.34 0.13 0.14 0.18 0.21 0.09 0.08 0.02 0.00 0.00 0.00 0.00 0.00 0.00 0.00 0.00 0.00 0.00 0.00 0.00 0.00 0.00 0.00 0.00 0.00 0.00 0.00 0.00 0.00 0.00 0.00 0.00 0.00 0.00
0.00 0.01 0.01 0.02 0.01 0.15 0.37 0.20 0.20 0.07 0.09 0.12 0.17 0.11 0.06 0.00 0.00 0.00 0.00 0.00 0.00 0.00 0.00 0.00 0.00 0.00 0.00 0.00 0.00 0.00 0.00 0.00 0.00 0.00 0.00 0.00 0.00 0.00 0.00 0.00 0.00 0.00
0.00 0.01 0.02 0.02 0.01 0.65 0.15 0.12 0.13 0.12 0.03 0.05 0.06 0.01 0.00 0.00 0.00 0.00 0.00 0.00 0.00 0.00 0.00 0.00 0.00 0.00 0.00 0.00 0.00 0.00 0.00 0.00 0.00 0.00 0.00 0.00 0.00 0.00 0.00 0.00 0.00 0.00
0.00 0.01 0.01 0.01 0.05 0.05 0.03 0.10 0.06 0.11 0.16 0.03 0.01 0.01 0.00 0.00 0.00 0.00 0.00 0.00 0.00 0.00 0.00 0.00 0.00 0.00 0.00 0.00 0.00 0.00 0.00 0.00 0.00 0.00 0.00 0.00 0.00 0.00 0.00 0.00 0.00 0.00
0.01 0.00 0.00 0.00 0.00 0.00 0.01 0.11 0.14 0.04 0.04 0.03 0.02 0.00 0.00 0.00 0.00 0.00 0.00 0.00 0.00 0.00 0.00 0.00 0.00 0.00 0.00 0.00 0.00 0.00 0.00 0.00 0.00 0.00 0.00 0.00 0.00 0.00 0.00 0.00 0.00 0.00
0.01 0.00 0.00 0.00 0.00 0.00 0.00 0.02 0.08 0.02 0.03 0.01 0.01 0.00 0.00 0.00 0.00 0.00 0.00 0.00 0.00 0.00 0.00 0.00 0.00 0.00 0.00 0.00 0.00 0.00 0.00 0.00 0.00 0.00 0.00 0.00 0.00 0.00 0.00 0.00 0.00 0.00
0.00 0.00 0.00 0.00 0.00 0.00 0.00 0.01 0.01 0.01 0.00 0.00 0.00 0.00 0.00 0.00 0.00 0.00 0.00 0.00 0.00 0.00 0.00 0.00 0.00 0.00 0.00 0.00 0.00 0.00 0.00 0.00 0.00 0.00 0.00 0.00 0.00 0.00 0.00 0.00 0.00 0.00
0.00 0.00 0.00 0.00 0.01 0.02 0.01 0.01 0.01 0.00 0.00 0.00 0.00 0.00 0.00 0.00 0.00 0.00 0.00 0.00 0.00 0.00 0.00 0.00 0.00 0.00 0.00 0.00 0.00 0.00 0.00 0.00 0.00 0.00 0.00 0.00 0.00 0.00 0.00 0.00 0.00 0.00
0.00 0.00 0.00 0.00 0.00 0.01 0.01 0.01 0.00 0.00 0.00 0.00 0.00 0.00 0.00 0.00 0.00 0.00 0.00 0.00 0.00 0.00 0.00 0.00 0.00 0.00 0.00 0.00 0.00 0.00 0.00 0.00 0.00 0.00 0.00 0.00 0.00 0.00 0.00 0.00 0.00 0.00
0.00 0.00 0.00 0.00 0.00 0.00 0.00 0.00 0.00 0.00 0.00 0.00 0.00 0.00 0.00 0.00 0.00 0.00 0.00 0.00 0.00 0.00 0.00 0.00 0.00 0.00 0.00 0.00 0.00 0.00 0.00 0.00 0.00 0.00 0.00 0.00 0.00 0.00 0.00 0.00 0.00 0.00
0.00 0.00 0.00 0.00 0.01 0.01 0.00 0.00 0.00 0.00 0.00 0.00 0.00 0.00 0.00 0.00 0.00 0.00 0.00 0.00 0.00 0.00 0.00 0.00 0.00 0.00 0.00 0.00 0.00 0.00 0.00 0.00 0.00 0.00 0.00 0.00 0.00 0.00 0.00 0.00 0.00 0.00
0.00 0.00 0.00 0.00 0.01 0.01 0.01 0.01 0.00 0.00 0.00 0.00 0.00 0.00 0.00 0.00 0.00 0.00 0.00 0.00 0.00 0.00 0.00 0.00 0.00 0.00 0.00 0.00 0.00 0.00 0.00 0.00 0.00 0.00 0.00 0.00 0.00 0.00 0.00 0.00 0.00 0.00
0.00 0.00 0.00 0.00 0.00 0.00 0.00 0.00 0.01 0.01 0.00 0.00 0.00 0.00 0.00 0.00 0.00 0.00 0.00 0.00 0.00 0.00 0.00 0.00 0.00 0.00 0.00 0.00 0.00 0.00 0.00 0.00 0.00 0.00 0.00 0.00 0.00 0.00 0.00 0.00 0.00 0.00
0.00 0.00 0.00 0.00 0.00 0.00 0.00 0.00 0.00 0.00 0.00 0.00 0.00 0.00 0.00 0.00 0.00 0.00 0.00 0.00 0.00 0.00 0.00 0.00 0.00 0.00 0.00 0.00 0.00 0.00 0.00 0.00 0.00 0.00 0.00 0.00 0.00 0.00 0.00 0.00 0.00 0.00
0.00 0.00 0.00 0.00 0.00 0.00 0.00 0.00 0.00 0.00 0.00 0.00 0.00 0.00 0.00 0.00 0.00 0.00 0.00 0.00 0.00 0.00 0.00 0.00 0.00 0.00 0.00 0.00 0.00 0.00 0.00 0.00 0.00 0.00 0.00 0.00 0.00 0.00 0.00 0.00 0.00 0.00
0.00 0.00 0.00 0.00 0.00 0.00 0.00 0.00 0.00 0.00 0.00 0.00 0.00 0.00 0.00 0.00 0.00 0.00 0.00 0.00 0.00 0.00 0.00 0.00 0.00 0.00 0.00 0.00 0.00 0.00 0.00 0.00 0.00 0.00 0.00 0.00 0.00 0.00 0.00 0.00 0.00 0.00
0.00 0.00 0.00 0.00 0.00 0.00 0.00 0.00 0.00 0.00 0.00 0.00 0.00 0.00 0.00 0.00 0.00 0.00 0.00 0.00 0.00 0.00 0.00 0.00 0.00 0.00 0.00 0.00 0.00 0.00 0.00 0.00 0.00 0.00 0.00 0.00 0.00 0.00 0.00 0.00 0.00 0.00
MSLP
1013.34 1013.66 1014.06 1014.46 1014.74 1015.02 1015.30 1015.54 1015.54 1015.78 1016.14 1016.50 1016.78 1017.06 1017.38 1017.46 1017.34 1017.42 1017.30 1017.30 1017.54 1018.02 1018.38 1018.54 1018.66 1018.74 1018.82 1018.86 1018.98 1019.10 1019.38 1019.66 1019.82 1019.98 1020.14 1020.22 1020.38 1020.38 1020.46 1020.50 1020.46 1020.46
1013.34 1013.66 1014.06 1014.46 1014.82 1014.98 1015.10 1015.30 1015.50 1015.82 1016.30 1016.54 1016.90 1017.30 1017.58 1017.58 1017.58 1017.54 1017.46 1017.66 1018.10 1018.58 1018.70 1018.86 1018.94 1018.98 1019.06 1019.18 1019.34 1019.50 1019.70 1019.94 1020.14 1020.22 1020.42 1020.50 1020.58 1020.62 1020.74 1020.74 1020.74 1020.70
1013.50 1013.90 1014.26 1014.58 1014.78 1015.02 1015.14 1015.42 1015.74 1016.06 1016.38 1016.78 1017.14 1017.42 1017.54 1017.62 1017.74 1017.74 1017.66 1017.94 1018.42 1018.82 1018.94 1018.98 1019.10 1019.10 1019.22 1019.42 1019.54 1019.66 1019.90 1020.10 1020.30 1020.34 1020.46 1020.62 1020.70 1020.78 1020.90 1020.94 1020.98 1021.02
1013.58 1013.94 1014.26 1014.58 1014.78 1015.06 1015.34 1015.62 1015.94 1016.26 1016.58 1017.10 1017.34 1017.46 1017.66 1017.78 1017.86 1017.98 1018.06 1018.30 1018.70 1018.94 1019.02 1019.14 1019.18 1019.30 1019.46 1019.62 1019.70 1019.90 1020.06 1020.26 1020.42 1020.54 1020.70 1020.78 1020.86 1020.90 1021.02 1021.06 1021.14 1021.18
1013.46 1013.90 1014.22 1014.54 1014.82 1015.06 1015.50 1015.82 1016.14 1016.54 1016.86 1017.14 1017.38 1017.62 1017.86 1018.02 1018.06 1018.10 1018.34 1018.58 1018.74 1019.02 1019.22 1019.18 1019.30 1019.54 1019.70 1019.82 1019.90 1020.14 1020.26 1020.46 1020.58 1020.62 1020.82 1021.02 1021.06 1021.14 1021.18 1021.22 1021.38 1021.46
1013.18 1013.54 1014.02 1014.46 1014.78 1015.18 1015.62 1016.02 1016.42 1016.78 1017.06 1017.46 1017.66 1017.82 1017.94 1018.10 1018.10 1018.18 1018.50 1018.66 1018.78 1019.18 1019.30 1019.14 1019.42 1019.70 1019.90 1019.98 1020.02 1020.22 1020.38 1020.54 1020.74 1020.86 1021.02 1021.22 1021.30 1021.26 1021.34 1021.42 1021.50 1021.62
1012.94 1013.46 1014.14 1014.54 1014.94 1015.22 1015.54 1015.98 1016.50 1016.86 1017.14 1017.30 1017.62 1017.98 1018.10 1018.18 1018.02 1018.18 1018.42 1018.62 1018.94 1019.06 1019.14 1019.38 1019.58 1019.86 1020.02 1020.06 1020.14 1020.34 1020.54 1020.74 1020.86 1020.98 1021.18 1021.34 1021.42 1021.50 1021.46 1021.54 1021.66 1021.74
1012.86 1013.34 1013.98 1014.34 1014.78 1015.30 1015.70 1016.18 1016.58 1017.06 1017.30 1017.50 1017.86 1017.98 1018.14 1017.98 1017.90 1018.06 1018.34 1018.58 1018.82 1019.02 1019.30 1019.42 1019.54 1019.82 1020.06 1020.14 1020.30 1020.58 1020.78 1020.86 1020.98 1021.14 1021.34 1021.50 1021.54 1021.70 1021.78 1021.82 1021.90 1021.94
1012.82 1013.34 1013.94 1014.30 1014.66 1015.18 1015.66 1016.18 1016.74 1017.26 1017.54 1017.66 1017.98 1018.18 1018.14 1017.94 1018.06 1018.26 1018.38 1018.42 1018.82 1019.10 1019.38 1019.58 1019.62 1020.06 1020.18 1020.30 1020.54 1020.70 1020.86 1021.02 1021.14 1021.34 1021.58 1021.70 1021.78 1021.82 1021.90 1022.02 1022.14 1022.18
1013.10 1013.62 1014.06 1014.42 1014.86 1015.22 1015.66 1016.06 1016.62 1017.18 1017.50 1017.74 1018.06 1018.26 1018.38 1018.22 1018.18 1018.38 1018.46 1018.58 1018.82 1019.06 1019.30 1019.50 1019.86 1020.18 1020.26 1020.38 1020.54 1020.74 1020.94 1021.14 1021.34 1021.50 1021.58 1021.66 1021.78 1021.90 1022.06 1022.14 1022.26 1022.30
1013.34 1013.82 1014.22 1014.66 1015.06 1015.50 1015.86 1016.18 1016.58 1016.94 1017.42 1017.82 1018.14 1018.34 1018.46 1018.30 1018.26 1018.38 1018.46 1018.54 1018.90 1019.10 1019.34 1019.74 1020.10 1020.18 1020.34 1020.54 1020.74 1020.86 1021.02 1021.22 1021.34 1021.50 1021.66 1021.78 1021.98 1022.14 1022.26 1022.30 1022.38 1022.42
1013.50 1013.98 1014.54 1015.06 1015.38 1015.74 1016.18 1016.38 1016.58 1016.94 1017.46 1017.90 1018.10 1018.34 1018.50 1018.22 1018.18 1018.34 1018.38 1018.58 1018.90 1019.10 1019.22 1019.82 1020.02 1020.26 1020.46 1020.66 1020.86 1021.02 1021.18 1021.34 1021.54 1021.74 1021.90 1022.06 1022.18 1022.30 1022.42 1022.54 1022.58 1022.66
1013.78 1014.26 1014.74 1015.30 1015.50 1015.78 1016.14 1016.46 1016.74 1017.10 1017.50 1017.94 1018.18 1018.46 1018.58 1018.22 1018.02 1018.38 1018.38 1018.66 1018.82 1019.10 1019.58 1019.94 1020.14 1020.34 1020.58 1020.82 1021.02 1021.22 1021.42 1021.58 1021.74 1021.90 1022.10 1022.26 1022.38 1022.46 1022.62 1022.74 1022.82 1022.94
1013.78 1014.22 1014.74 1015.18 1015.58 1015.98 1016.38 1016.70 1016.98 1017.30 1017.70 1018.02 1018.26 1018.46 1018.38 1018.22 1018.22 1018.42 1018.58 1018.74 1019.06 1019.26 1019.78 1020.02 1020.26 1020.50 1020.74 1020.90 1021.10 1021.38 1021.58 1021.78 1021.94 1022.14 1022.34 1022.50 1022.62 1022.78 1022.90 1023.06 1023.22 1023.42
1013.58 1014.22 1014.74 1015.18 1015.58 1015.98 1016.46 1016.98 1017.30 1017.54 1017.82 1018.10 1018.30 1018.34 1017.98 1018.02 1018.10 1018.42 1018.74 1019.02 1019.22 1019.62 1019.98 1020.14 1020.34 1020.58 1020.74 1020.98 1021.26 1021.54 1021.70 1021.94 1022.14 1022.30 1022.46 1022.62 1022.78 1022.94 1023.10 1023.34 1023.62 1023.94
1013.82 1014.38 1014.74 1015.22 1015.54 1015.94 1016.50 1016.94 1017.26 1017.54 1017.74 1018.02 1018.30 1018.30 1017.94 1017.98 1018.26 1018.50 1018.90 1019.06 1019.30 1019.98 1020.06 1020.26 1020.46 1020.74 1021.14 1021.18 1021.38 1021.50 1021.70 1021.94 1022.22 1022.42 1022.54 1022.66 1022.86 1023.10 1023.38 1023.66 1024.02 1024.34
1014.06 1014.46 1014.86 1015.34 1015.62 1016.02 1016.50 1016.90 1017.14 1017.34 1017.66 1017.98 1018.22 1018.22 1017.98 1018.10 1018.58 1018.82 1019.02 1019.18 1019.74 1019.98 1020.22 1020.42 1020.86 1021.42 1021.54 1021.62 1021.62 1021.66 1021.82 1022.06 1022.22 1022.42 1022.58 1022.78 1022.98 1023.22 1023.54 1023.86 1024.06 1024.34
1014.22 1014.58 1014.94 1015.50 1015.90 1016.26 1016.58 1016.82 1017.06 1017.42 1017.74 1018.02 1018.06 1018.18 1018.42 1018.46 1018.70 1019.02 1019.34 1019.62 1019.94 1020.18 1020.50 1020.90 1021.46 1021.98 1021.86 1021.90 1021.94 1021.98 1021.94 1022.02 1022.26 1022.46 1022.62 1022.78 1022.94 1023.18 1023.42 1023.58 1023.70 1023.86
1014.18 1014.54 1014.86 1015.34 1015.78 1016.06 1016.30 1016.66 1016.98 1017.50 1017.86 1018.10 1018.30 1018.30 1018.54 1018.78 1018.94 1019.26 1019.58 1019.86 1020.10 1020.38 1020.78 1021.26 1021.74 1022.22 1022.14 1022.22 1022.26 1022.22 1022.14 1022.10 1022.22 1022.42 1022.58 1022.78 1022.98 1023.14 1023.34 1023.54 1023.66 1023.82
1014.18 1014.58 1014.90 1015.26 1015.66 1016.14 1016.54 1016.98 1017.34 1017.70 1017.86 1018.06 1018.34 1018.58 1018.66 1018.86 1019.14 1019.46 1019.78 1019.90 1020.14 1020.58 1020.98 1021.42 1021.90 1022.46 1022.42 1022.50 1022.46 1022.46 1022.46 1022.26 1022.26 1022.46 1022.66 1022.82 1023.02 1023.26 1023.42 1023.50 1023.58 1023.66
1014.18 1014.54 1014.82 1015.38 1015.86 1016.30 1016.66 1017.06 1017.42 1017.78 1018.02 1018.22 1018.46 1018.66 1018.78 1019.02 1019.34 1019.74 1019.82 1020.02 1020.34 1020.66 1021.06 1021.66 1022.30 1022.70 1022.66 1022.66 1022.66 1022.58 1022.42 1022.30 1022.50 1022.66 1022.86 1023.06 1023.22 1023.34 1023.42 1023.50 1023.58 1023.66
1014.26 1014.58 1015.06 1015.50 1015.94 1016.38 1016.74 1017.10 1017.50 1017.86 1018.14 1018.42 1018.50 1018.62 1018.82 1019.14 1019.50 1019.70 1019.90 1020.14 1020.42 1020.78 1021.30 1021.86 1022.66 1022.98 1022.82 1022.82 1022.78 1022.62 1022.50 1022.38 1022.62 1022.86 1023.10 1023.30 1023.46 1023.54 1023.58 1023.66 1023.70 1023.78
1014.34 1014.74 1015.26 1015.70 1016.06 1016.42 1016.82 1017.22 1017.62 1017.90 1018.14 1018.26 1018.42 1018.66 1018.98 1019.26 1019.58 1019.82 1019.98 1020.22 1020.58 1020.94 1021.42 1022.02 1022.66 1023.10 1022.98 1022.86 1022.74 1022.66 1022.58 1022.42 1022.74 1022.86 1023.14 1023.34 1023.46 1023.54 1023.58 1023.70 1023.94 1023.90
1014.38 1014.78 1015.30 1015.74 1016.06 1016.42 1016.78 1017.18 1017.50 1017.78 1017.98 1018.10 1018.38 1018.66 1018.90 1019.30 1019.62 1019.78 1020.02 1020.34 1020.66 1021.06 1021.46 1021.98 1022.46 1023.02 1023.02 1022.86 1022.82 1022.98 1022.94 1022.54 1022.62 1022.86 1023.18 1023.34 1023.50 1023.62 1023.78 1024.14 1024.50 1024.66
1014.42 1014.86 1015.26 1015.74 1016.14 1016.42 1016.66 1016.98 1017.30 1017.54 1017.74 1017.98 1018.30 1018.58 1018.86 1019.26 1019.42 1019.66 1020.02 1020.42 1020.74 1021.14 1021.70 1021.98 1022.42 1022.98 1023.18 1023.10 1023.10 1023.10 1023.30 1022.66 1022.46 1022.82 1023.14 1023.30 1023.50 1023.78 1023.94 1024.22 1024.62 1025.02
1014.38 1014.82 1015.22 1015.54 1015.86 1016.22 1016.42 1016.78 1017.10 1017.42 1017.78 1017.94 1018.22 1018.38 1018.78 1019.06 1019.30 1019.62 1020.02 1020.38 1020.82 1021.34 1021.78 1021.94 1022.38 1022.78 1023.14 1023.22 1023.18 1023.46 1023.74 1023.38 1022.38 1022.74 1022.94 1023.22 1023.30 1023.46 1023.82 1024.22 1024.62 1025.02
Thickness
5681 5677 5672 5668 5666 5663 5661 5659 5656 5655 5652 5651 5650 5649 5647 5648 5650 5650 5652 5654 5652 5648 5646 5646 5645 5645 5644 5645 5644 5644 5642 5640 5638 5637 5636 5634 5633 5632 5631 5631 5630 5629
5678 5674 5669 5665 5662 5660 5658 5657 5654 5652 5649 5648 5647 5645 5644 5645 5646 5647 5649 5649 5646 5642 5641 5641 5641 5641 5641 5640 5640 5639 5638 5636 5635 5633 5632 5631 5630 5629 5627 5627 5626 5624
5674 5670 5665 5662 5659 5657 5655 5653 5650 5648 5646 5644 5644 5643 5642 5643 5644 5644 5645 5644 5640 5637 5638 5638 5638 5638 5638 5637 5636 5636 5634 5632 5631 5630 5629 5628 5627 5625 5624 5623 5621 5620
5670 5666 5663 5660 5658 5655 5650 5648 5646 5644 5643 5641 5640 5640 5640 5640 5641 5640 5640 5638 5636 5634 5635 5635 5635 5635 5634 5633 5633 5632 5631 5629 5628 5627 5625 5624 5623 5622 5621 5619 5618 5616
5670 5666 5662 5659 5656 5651 5646 5643 5641 5640 5639 5637 5637 5637 5636 5636 5638 5637 5634 5634 5633 5632 5632 5632 5632 5631 5630 5630 5630 5629 5627 5626 5625 5624 5622 5620 5619 5618 5617 5615 5614 5612
5671 5667 5662 5658 5654 5649 5644 5641 5638 5637 5636 5635 5634 5634 5633 5634 5635 5634 5633 5632 5631 5629 5630 5630 5629 5627 5627 5627 5627 5626 5625 5623 5622 5621 5619 5617 5615 5614 5613 5612 5609 5607
5672 5665 5659 5655 5652 5648 5643 5640 5637 5635 5634 5634 5632 5631 5630 5631 5633 5633 5631 5630 5629 5628 5628 5627 5626 5625 5625 5625 5625 5623 5622 5620 5619 5617 5615 5613 5612 5611 5609 5607 5605 5603
5669 5663 5658 5655 5651 5646 5642 5639 5635 5632 5632 5631 5630 5628 5628 5630 5632 5631 5630 5628 5627 5626 5626 5625 5625 5624 5622 5622 5622 5619 5618 5617 5615 5614 5611 5610 5608 5606 5605 5602 5601 5599
5667 5662 5657 5654 5651 5646 5641 5639 5634 5630 5628 5629 5627 5625 5626 5628 5628 5628 5627 5628 5626 5624 5624 5623 5622 5621 5620 5619 5618 5617 5616 5614 5612 5610 5608 5606 5604 5602 5600 5598 5597 5594
5665 5660 5656 5653 5650 5645 5641 5638 5634 5630 5627 5626 5625 5624 5623 5624 5625 5625 5625 5626 5624 5623 5623 5621 5619 5618 5617 5617 5616 5614 5613 5611 5609 5607 5605 5603 5601 5599 5597 5594 5593 5591
5662 5658 5654 5650 5646 5641 5637 5635 5633 5631 5627 5624 5623 5622 5621 5622 5623 5623 5624 5624 5622 5622 5621 5618 5617 5616 5614 5614 5613 5611 5610 5607 5605 5603 5601 5599 5597 5595 5593 5591 5589 5587
5658 5653 5648 5644 5640 5637 5634 5632 5631 5630 5625 5622 5621 5619 5618 5621 5623 5622 5623 5622 5621 5620 5619 5615 5614 5613 5612 5611 5609 5607 5605 5603 5601 5600 5597 5595 5593 5591 5588 5586 5585 5583
5653 5649 5644 5639 5637 5634 5631 5629 5628 5627 5623 5620 5618 5617 5617 5620 5622 5621 5621 5621 5619 5618 5615 5612 5611 5610 5608 5607 5605 5603 5601 5599 5597 5596 5593 5591 5589 5586 5583 5581 5580 5578
5651 5646 5641 5638 5634 5632 5628 5625 5624 5622 5620 5617 5616 5616 5617 5619 5620 5620 5618 5618 5616 5614 5612 5610 5609 5607 5605 5603 5601 5599 5597 5595 5593 5591 5589 5586 5584 5581 5579 5576 5574 5572
5650 5645 5640 5637 5634 5630 5626 5622 5620 5618 5617 5615 5614 5615 5618 5619 5619 5617 5616 5615 5614 5611 5608 5607 5606 5603 5602 5599 5597 5595 5593 5591 5589 5587 5584 5582 5580 5577 5575 5572 5569 5566
5648 5643 5639 5636 5633 5629 5625 5621 5618 5617 5616 5615 5613 5615 5617 5619 5617 5615 5613 5612 5610 5607 5605 5604 5602 5599 5597 5595 5593 5592 5590 5588 5586 5583 5581 5579 5576 5573 5570 5567 5563 5560
5644 5641 5637 5634 5631 5628 5624 5621 5619 5617 5616 5614 5613 5614 5616 5616 5614 5611 5610 5609 5606 5604 5603 5601 5597 5593 5591 5590 5589 5588 5587 5585 5582 5580 5578 5575 5573 5570 5566 5563 5561 5558
5642 5639 5635 5631 5629 5626 5624 5621 5619 5617 5614 5613 5613 5613 5612 5612 5610 5608 5606 5605 5603 5601 5598 5595 5590 5587 5586 5585 5584 5583 5583 5581 5579 5577 5575 5572 5570 5568 5564 5562 5560 5557
5640 5638 5635 5631 5628 5626 5624 5621 5618 5615 5613 5612 5611 5610 5609 5608 5607 5605 5603 5601 5599 5596 5593 5590 5585 5582 5581 5580 5579 5579 5579 5578 5577 5574 5572 5570 5567 5565 5562 5560 5558 5555
5639 5636 5634 5631 5627 5624 5621 5618 5615 5613 5611 5610 5608 5607 5606 5605 5603 5601 5599 5598 5596 5592 5589 5585 5581 5577 5577 5576 5575 5575 5575 5575 5573 5571 5569 5567 5564 5562 5559 5557 5556 5553
5637 5635 5632 5629 5626 5622 5619 5616 5613 5610 5608 5607 5606 5604 5604 5603 5600 5598 5596 5594 5592 5589 5585 5581 5576 5573 5573 5572 5572 5571 5571 5571 5570 5567 5565 5562 5560 5558 5556 5554 5552 5551
5635 5633 5630 5626 5622 5619 5617 5614 5611 5608 5606 5604 5604 5603 5602 5599 5596 5594 5593 5591 5588 5585 5582 5576 5571 5569 5569 5568 5568 5568 5568 5568 5565 5562 5560 5558 5555 5554 5552 5551 5549 5547
5633 5630 5627 5623 5620 5618 5615 5611 5609 5606 5605 5603 5602 5601 5599 5596 5593 5592 5589 5587 5585 5581 5577 5573 5568 5566 5565 5565 5565 5564 5564 5564 5562 5559 5557 5555 5552 5551 5549 5547 5544 5543
5630 5627 5624 5621 5618 5616 5613 5610 5607 5605 5604 5602 5600 5598 5596 5593 5590 5588 5586 5584 5581 5577 5574 5570 5566 5563 5561 5562 5561 5560 5560 5561 5559 5557 5554 5552 5550 5548 5546 5543 5539 5538
5626 5624 5621 5618 5615 5613 5612 5609 5606 5604 5602 5600 5598 5595 5593 5590 5588 5586 5583 5580 5577 5573 5570 5567 5563 5560 5558 5558 5557 5556 5554 5556 5557 5554 5551 5550 5547 5544 5542 5539 5535 5532
5623 5620 5618 5616 5613 5611 5610 5607 5604 5602 5599 5597 5595 5593 5590 5588 5586 5583 5580 5576 5573 5569 5566 5563 5560 5558 5555 5554 5554 5552 5549 5551 5555 5553 5550 5548 5546 5542 5540 5536 5532 5529